Time,TemperatureF,DewpointF,PressureIn,WindDirection,WindDirectionDegrees,WindSpeedMPH,WindSpeedGustMPH,Humidity,HourlyPrecipIn,Conditions,Clouds,dailyrainin,SolarRadiationWatts/m^2,SoftwareType,DateUTC
2013-06-05 00:01:00,61.6,61.6,30.19,NNE,26,0.0,1.0,100,0.00,,,0.00,0,TxWx,2013-06-05 04:01:00,
2013-06-05 00:02:00,61.5,61.5,30.19,NNE,26,1.1,1.1,100,0.00,,,0.00,0,TxWx,2013-06-05 04:02:00,
2013-06-05 00:07:00,61.5,61.5,30.19,NNE,26,0.0,0.0,100,0.00,,,0.00,0,TxWx,2013-06-05 04:07:00,
2013-06-05 00:12:00,61.6,61.6,30.18,NNE,26,1.1,1.1,100,0.00,,,0.00,0,TxWx,2013-06-05 04:12:00,
2013-06-05 00:17:00,61.6,61.6,30.18,NNE,26,0.0,0.0,100,0.00,,,0.00,0,TxWx,2013-06-05 04:17:00,
2013-06-05 00:22:00,61.6,61.6,30.18,NNE,26,0.0,0.0,100,0.00,,,0.00,0,TxWx,2013-06-05 04:22:00,
2013-06-05 00:27:00,61.5,61.5,30.18,NNE,27,0.0,0.0,100,0.00,,,0.00,0,TxWx,2013-06-05 04:27:00,
2013-06-05 00:32:00,61.4,61.4,30.18,NNE,27,0.0,0.0,100,0.00,,,0.00,0,TxWx,2013-06-05 04:32:00,
2013-06-05 00:37:00,61.3,61.3,30.18,NNE,27,0.0,0.0,100,0.00,,,0.00,0,TxWx,2013-06-05 04:37:00,
2013-06-05 00:42:00,61.4,61.4,30.18,NNE,27,0.0,0.0,100,0.00,,,0.00,0,TxWx,2013-06-05 04:42:00,
2013-06-05 00:47:00,61.4,61.4,30.18,NNE,26,0.0,0.0,100,0.00,,,0.00,0,TxWx,2013-06-05 04:47:00,
2013-06-05 00:52:00,61.4,61.4,30.18,NNE,26,0.0,0.0,100,0.00,,,0.00,0,TxWx,2013-06-05 04:52:00,
2013-06-05 00:57:00,61.4,61.4,30.18,NNE,26,0.0,0.0,100,0.00,,,0.00,0,TxWx,2013-06-05 04:57:00,
2013-06-05 01:02:00,61.4,61.4,30.18,North,8,0.0,0.0,100,0.00,,,0.00,0,TxWx,2013-06-05 05:02:00,
2013-06-05 01:07:00,61.1,61.1,30.18,WSW,245,0.0,0.0,100,0.00,,,0.00,0,TxWx,2013-06-05 05:07:00,
2013-06-05 01:12:00,61.2,61.2,30.18,WSW,245,0.0,0.0,100,0.00,,,0.00,0,TxWx,2013-06-05 05:12:00,
2013-06-05 01:17:00,61.1,61.1,30.18,North,8,0.0,0.0,100,0.00,,,0.00,0,TxWx,2013-06-05 05:17:00,
2013-06-05 01:22:00,60.8,60.8,30.17,NE,40,0.0,0.0,100,0.00,,,0.00,0,TxWx,2013-06-05 05:22:00,
2013-06-05 01:27:00,60.8,60.8,30.17,NNE,32,0.0,0.0,100,0.00,,,0.00,0,TxWx,2013-06-05 05:27:00,
2013-06-05 01:32:00,60.9,60.9,30.17,North,8,0.0,0.0,100,0.00,,,0.00,0,TxWx,2013-06-05 05:32:00,
2013-06-05 01:37:00,60.8,60.8,30.18,North,8,0.0,0.0,100,0.00,,,0.00,0,TxWx,2013-06-05 05:37:00,
2013-06-05 01:42:00,60.7,60.7,30.18,NW,313,0.0,0.0,100,0.00,,,0.00,0,TxWx,2013-06-05 05:42:00,
2013-06-05 01:47:00,60.7,60.7,30.18,WNW,300,0.0,0.0,100,0.00,,,0.00,0,TxWx,2013-06-05 05:47:00,
2013-06-05 01:52:00,60.4,60.4,30.18,North,8,0.0,0.0,100,0.00,,,0.00,0,TxWx,2013-06-05 05:52:00,
2013-06-05 01:57:00,60.3,60.3,30.18,North,8,0.0,0.0,100,0.00,,,0.00,0,TxWx,2013-06-05 05:57:00,
2013-06-05 02:02:00,60.2,60.2,30.18,North,8,0.0,0.0,100,0.00,,,0.00,0,TxWx,2013-06-05 06:02:00,
2013-06-05 02:07:00,60.0,60.0,30.18,North,10,0.0,0.0,100,0.00,,,0.00,0,TxWx,2013-06-05 06:07:00,
2013-06-05 02:12:00,59.9,59.9,30.18,NNE,22,0.0,0.0,100,0.00,,,0.00,0,TxWx,2013-06-05 06:12:00,
2013-06-05 02:17:00,59.9,59.9,30.18,NNE,22,0.0,0.0,100,0.00,,,0.00,0,TxWx,2013-06-05 06:17:00,
2013-06-05 02:22:00,59.9,59.9,30.18,WNW,301,0.0,0.0,100,0.00,,,0.00,0,TxWx,2013-06-05 06:22:00,
2013-06-05 02:27:00,60.0,60.0,30.18,North,350,0.0,0.0,100,0.00,,,0.00,0,TxWx,2013-06-05 06:27:00,
2013-06-05 02:32:00,59.9,59.9,30.17,North,350,0.0,0.0,100,0.00,,,0.00,0,TxWx,2013-06-05 06:32:00,
2013-06-05 02:37:00,59.9,59.9,30.17,North,350,0.0,0.0,100,0.00,,,0.00,0,TxWx,2013-06-05 06:37:00,
2013-06-05 02:42:00,59.8,59.8,30.17,North,350,0.0,0.0,100,0.00,,,0.00,0,TxWx,2013-06-05 06:42:00,
2013-06-05 02:47:00,59.6,59.6,30.17,North,353,0.0,0.0,100,0.00,,,0.00,0,TxWx,2013-06-05 06:47:00,
2013-06-05 02:52:00,59.5,59.5,30.17,North,352,0.0,0.0,100,0.00,,,0.00,0,TxWx,2013-06-05 06:52:00,
2013-06-05 02:57:00,59.4,59.4,30.17,North,355,0.0,0.0,100,0.00,,,0.00,0,TxWx,2013-06-05 06:57:00,
2013-06-05 03:02:00,59.4,59.4,30.17,North,356,0.0,0.0,100,0.00,,,0.00,0,TxWx,2013-06-05 07:02:00,
2013-06-05 03:07:00,59.5,59.5,30.17,North,356,0.0,0.0,100,0.00,,,0.00,0,TxWx,2013-06-05 07:07:00,
2013-06-05 03:12:00,59.6,59.6,30.16,North,356,0.0,0.0,100,0.00,,,0.00,0,TxWx,2013-06-05 07:12:00,
2013-06-05 03:17:00,59.6,59.6,30.16,North,356,0.0,0.0,100,0.00,,,0.00,0,TxWx,2013-06-05 07:17:00,
2013-06-05 03:22:00,59.4,59.4,30.16,North,356,0.0,0.0,100,0.00,,,0.00,0,TxWx,2013-06-05 07:22:00,
2013-06-05 03:27:00,59.2,59.2,30.16,North,356,0.0,0.0,100,0.00,,,0.00,0,TxWx,2013-06-05 07:27:00,
2013-06-05 03:32:00,59.1,59.1,30.16,North,356,0.0,0.0,100,0.00,,,0.00,0,TxWx,2013-06-05 07:32:00,
2013-06-05 03:37:00,58.9,58.9,30.16,North,356,0.0,0.0,100,0.00,,,0.00,0,TxWx,2013-06-05 07:37:00,
2013-06-05 03:42:00,58.7,58.7,30.16,North,356,0.0,0.0,100,0.00,,,0.00,0,TxWx,2013-06-05 07:42:00,
2013-06-05 03:47:00,58.5,58.5,30.17,North,356,0.0,0.0,100,0.00,,,0.00,0,TxWx,2013-06-05 07:47:00,
2013-06-05 03:52:00,58.4,58.4,30.17,North,356,0.0,0.0,100,0.00,,,0.00,0,TxWx,2013-06-05 07:52:00,
2013-06-05 03:57:00,58.5,58.5,30.17,North,356,0.0,0.0,100,0.00,,,0.00,0,TxWx,2013-06-05 07:57:00,
2013-06-05 04:02:00,58.3,58.3,30.17,North,356,0.0,0.0,100,0.00,,,0.00,0,TxWx,2013-06-05 08:02:00,
2013-06-05 04:07:00,58.4,58.4,30.17,North,356,0.0,0.0,100,0.00,,,0.00,0,TxWx,2013-06-05 08:07:00,
2013-06-05 04:12:00,58.5,58.5,30.17,North,356,0.0,0.0,100,0.00,,,0.00,0,TxWx,2013-06-05 08:12:00,
2013-06-05 04:17:00,58.6,58.6,30.17,North,355,0.0,0.0,100,0.00,,,0.00,0,TxWx,2013-06-05 08:17:00,
2013-06-05 04:22:00,58.6,58.6,30.17,North,355,0.0,0.0,100,0.00,,,0.00,0,TxWx,2013-06-05 08:22:00,
2013-06-05 04:27:00,58.6,58.6,30.18,North,355,0.0,0.0,100,0.00,,,0.00,0,TxWx,2013-06-05 08:27:00,
2013-06-05 04:32:00,58.7,58.7,30.18,NW,322,0.0,0.0,100,0.00,,,0.00,0,TxWx,2013-06-05 08:32:00,
2013-06-05 04:37:00,58.7,58.7,30.18,NW,322,0.0,0.0,100,0.00,,,0.00,0,TxWx,2013-06-05 08:37:00,
2013-06-05 04:42:00,58.8,58.8,30.18,NW,322,0.0,0.0,100,0.00,,,0.00,0,TxWx,2013-06-05 08:42:00,
2013-06-05 04:47:00,58.8,58.8,30.19,NW,322,0.0,0.0,100,0.00,,,0.00,0,TxWx,2013-06-05 08:47:00,
2013-06-05 04:52:00,58.8,58.8,30.18,NW,322,0.0,0.0,100,0.00,,,0.00,0,TxWx,2013-06-05 08:52:00,
2013-06-05 04:57:00,58.8,58.8,30.18,NW,322,0.0,0.0,100,0.00,,,0.00,0,TxWx,2013-06-05 08:57:00,
2013-06-05 05:02:00,58.8,58.8,30.18,NW,322,0.0,0.0,100,0.00,,,0.00,0,TxWx,2013-06-05 09:02:00,
2013-06-05 05:07:00,58.8,58.8,30.18,NW,322,0.0,0.0,100,0.00,,,0.00,0,TxWx,2013-06-05 09:07:00,
2013-06-05 05:12:00,58.8,58.8,30.18,NW,323,0.0,0.0,100,0.00,,,0.00,0,TxWx,2013-06-05 09:12:00,
2013-06-05 05:17:00,58.8,58.8,30.18,NW,323,0.0,0.0,100,0.00,,,0.00,0,TxWx,2013-06-05 09:17:00,
2013-06-05 05:22:00,58.8,58.8,30.18,NW,323,0.0,0.0,100,0.00,,,0.00,0,TxWx,2013-06-05 09:22:00,
2013-06-05 05:27:00,58.8,58.8,30.18,NW,323,0.0,0.0,100,0.00,,,0.00,0,TxWx,2013-06-05 09:27:00,
2013-06-05 05:32:00,58.7,58.7,30.17,NW,323,0.0,0.0,100,0.00,,,0.00,0,TxWx,2013-06-05 09:32:00,
2013-06-05 05:37:00,58.7,58.7,30.17,NW,323,0.0,0.0,100,0.00,,,0.00,0,TxWx,2013-06-05 09:37:00,
2013-06-05 05:42:00,58.8,58.8,30.17,NW,323,0.0,0.0,100,0.00,,,0.00,0,TxWx,2013-06-05 09:42:00,
2013-06-05 05:47:00,58.8,58.8,30.17,NW,323,0.0,0.0,100,0.00,,,0.00,0,TxWx,2013-06-05 09:47:00,
2013-06-05 05:52:00,58.7,58.7,30.18,NW,323,0.0,0.0,100,0.00,,,0.00,0,TxWx,2013-06-05 09:52:00,
2013-06-05 05:57:00,58.5,58.5,30.18,NW,323,0.0,0.0,100,0.00,,,0.00,0,TxWx,2013-06-05 09:57:00,
2013-06-05 06:02:00,58.6,58.6,30.18,NW,323,0.0,0.0,100,0.00,,,0.00,0,TxWx,2013-06-05 10:02:00,
2013-06-05 06:07:00,58.7,58.7,30.18,NW,323,0.0,0.0,100,0.00,,,0.00,0,TxWx,2013-06-05 10:07:00,
2013-06-05 06:12:00,58.7,58.7,30.18,NW,323,0.0,0.0,100,0.00,,,0.00,1,TxWx,2013-06-05 10:12:00,
2013-06-05 06:17:00,58.7,58.7,30.18,NW,323,0.0,0.0,100,0.00,,,0.00,1,TxWx,2013-06-05 10:17:00,
2013-06-05 06:22:00,58.7,58.7,30.19,NW,323,0.0,0.0,100,0.00,,,0.00,2,TxWx,2013-06-05 10:22:00,
2013-06-05 06:27:00,58.8,58.8,30.19,NW,323,0.0,0.0,100,0.00,,,0.00,2,TxWx,2013-06-05 10:27:00,
2013-06-05 06:32:00,58.9,58.9,30.19,NW,326,0.0,0.0,100,0.00,,,0.00,4,TxWx,2013-06-05 10:32:00,
2013-06-05 06:37:00,59.0,59.0,30.19,NW,325,0.0,0.0,100,0.00,,,0.00,5,TxWx,2013-06-05 10:37:00,
2013-06-05 06:42:00,59.1,59.1,30.19,NW,325,0.0,0.0,100,0.00,,,0.00,6,TxWx,2013-06-05 10:42:00,
2013-06-05 06:47:00,59.2,59.2,30.19,NW,326,0.0,0.0,100,0.00,,,0.00,8,TxWx,2013-06-05 10:47:00,
2013-06-05 06:52:00,59.3,59.3,30.19,NW,325,0.0,0.0,100,0.00,,,0.00,9,TxWx,2013-06-05 10:52:00,
2013-06-05 06:57:00,59.4,59.4,30.19,NW,325,0.0,0.0,100,0.00,,,0.00,8,TxWx,2013-06-05 10:57:00,
2013-06-05 07:02:00,59.5,59.5,30.19,NW,325,0.0,0.0,100,0.00,,,0.00,9,TxWx,2013-06-05 11:02:00,
2013-06-05 07:07:00,59.5,59.5,30.19,NW,325,0.0,0.0,100,0.00,,,0.00,15,TxWx,2013-06-05 11:07:00,
2013-06-05 07:12:00,59.7,59.7,30.19,NW,325,0.0,0.0,100,0.00,,,0.00,30,TxWx,2013-06-05 11:12:00,
2013-06-05 07:17:00,60.0,60.0,30.19,NW,325,0.0,0.0,100,0.00,,,0.00,25,TxWx,2013-06-05 11:17:00,
2013-06-05 07:22:00,60.1,60.1,30.20,NW,325,0.0,0.0,100,0.00,,,0.00,31,TxWx,2013-06-05 11:22:00,
2013-06-05 07:27:00,60.1,60.1,30.20,NNW,328,0.0,0.0,100,0.00,,,0.00,29,TxWx,2013-06-05 11:27:00,
2013-06-05 07:32:00,60.3,60.3,30.20,NNW,328,0.0,0.0,100,0.00,,,0.00,29,TxWx,2013-06-05 11:32:00,
2013-06-05 07:37:00,60.2,60.2,30.20,NNW,328,0.0,0.0,100,0.00,,,0.00,36,TxWx,2013-06-05 11:37:00,
2013-06-05 07:42:00,60.1,60.1,30.20,NNW,328,0.0,0.0,100,0.00,,,0.00,43,TxWx,2013-06-05 11:42:00,
2013-06-05 07:47:00,60.2,60.2,30.20,NNW,328,0.0,0.0,100,0.00,,,0.00,56,TxWx,2013-06-05 11:47:00,
2013-06-05 07:52:00,60.4,60.4,30.20,NNW,329,0.0,0.0,100,0.00,,,0.00,86,TxWx,2013-06-05 11:52:00,
2013-06-05 07:57:00,60.7,60.7,30.20,NNW,330,0.0,0.0,100,0.00,,,0.00,68,TxWx,2013-06-05 11:57:00,
2013-06-05 08:02:00,61.0,61.0,30.20,NNW,330,0.0,0.0,100,0.00,,,0.00,89,TxWx,2013-06-05 12:02:00,
2013-06-05 08:07:00,61.2,61.2,30.20,NW,321,0.0,0.0,100,0.00,,,0.00,67,TxWx,2013-06-05 12:07:00,
2013-06-05 08:12:00,61.1,61.1,30.20,NW,321,0.0,0.0,100,0.00,,,0.00,45,TxWx,2013-06-05 12:12:00,
2013-06-05 08:17:00,61.1,61.1,30.20,NW,320,0.0,0.0,100,0.00,,,0.00,57,TxWx,2013-06-05 12:17:00,
2013-06-05 08:22:00,61.2,61.2,30.20,NW,320,0.0,0.0,100,0.00,,,0.00,103,TxWx,2013-06-05 12:22:00,
2013-06-05 08:27:00,61.3,61.3,30.20,NW,320,0.0,0.0,100,0.00,,,0.00,66,TxWx,2013-06-05 12:27:00,
2013-06-05 08:32:00,61.5,61.5,30.20,North,4,0.0,0.0,100,0.00,,,0.00,60,TxWx,2013-06-05 12:32:00,
2013-06-05 08:37:00,61.7,61.7,30.20,North,4,0.0,0.0,100,0.00,,,0.00,77,TxWx,2013-06-05 12:37:00,
2013-06-05 08:42:00,61.8,61.8,30.20,North,4,0.0,0.0,100,0.00,,,0.00,60,TxWx,2013-06-05 12:42:00,
2013-06-05 08:47:00,61.8,61.8,30.20,North,1,0.0,0.0,100,0.00,,,0.00,54,TxWx,2013-06-05 12:47:00,
2013-06-05 08:52:00,62.0,62.0,30.20,North,1,0.0,0.0,100,0.00,,,0.00,55,TxWx,2013-06-05 12:52:00,
2013-06-05 08:57:00,62.2,62.2,30.20,North,1,0.0,0.0,100,0.00,,,0.00,48,TxWx,2013-06-05 12:57:00,
2013-06-05 09:02:00,62.2,62.2,30.20,WNW,300,0.0,0.0,100,0.00,,,0.00,55,TxWx,2013-06-05 13:02:00,
2013-06-05 09:07:00,62.4,62.4,30.20,North,9,0.0,0.0,100,0.00,,,0.00,66,TxWx,2013-06-05 13:07:00,
2013-06-05 09:12:00,62.5,62.5,30.20,NE,48,0.0,0.0,100,0.00,,,0.00,91,TxWx,2013-06-05 13:12:00,
2013-06-05 09:17:00,62.8,62.8,30.20,North,6,1.1,1.1,100,0.00,,,0.00,81,TxWx,2013-06-05 13:17:00,
2013-06-05 09:22:00,63.3,63.3,30.20,NW,317,0.0,0.0,100,0.00,,,0.00,163,TxWx,2013-06-05 13:22:00,
2013-06-05 09:27:00,63.8,63.8,30.20,WNW,295,1.1,2.0,100,0.00,,,0.00,105,TxWx,2013-06-05 13:27:00,
2013-06-05 09:32:00,64.2,64.2,30.20,NW,320,1.1,1.1,100,0.00,,,0.00,55,TxWx,2013-06-05 13:32:00,
2013-06-05 09:37:00,64.3,64.3,30.20,NNW,346,0.0,1.0,100,0.00,,,0.00,74,TxWx,2013-06-05 13:37:00,
2013-06-05 09:42:00,64.5,64.5,30.20,ENE,61,0.0,0.0,100,0.00,,,0.00,96,TxWx,2013-06-05 13:42:00,
2013-06-05 09:47:00,64.8,64.8,30.20,NW,326,1.1,1.1,100,0.00,,,0.00,143,TxWx,2013-06-05 13:47:00,
2013-06-05 09:52:00,65.3,65.3,30.20,NW,325,2.4,2.4,100,0.00,,,0.00,117,TxWx,2013-06-05 13:52:00,
2013-06-05 09:57:00,65.5,65.5,30.20,NNW,338,1.1,1.1,100,0.00,,,0.00,138,TxWx,2013-06-05 13:57:00,
2013-06-05 10:02:00,65.7,65.7,30.20,WNW,297,1.1,2.0,100,0.00,,,0.00,163,TxWx,2013-06-05 14:02:00,
2013-06-05 10:07:00,66.0,66.0,30.20,North,8,0.0,1.0,100,0.00,,,0.00,141,TxWx,2013-06-05 14:07:00,
2013-06-05 10:12:00,66.1,65.9,30.19,WNW,294,2.4,2.4,99,0.00,,,0.00,114,TxWx,2013-06-05 14:12:00,
2013-06-05 10:17:00,66.4,66.0,30.19,NNW,329,0.0,1.0,98,0.00,,,0.00,118,TxWx,2013-06-05 14:17:00,
2013-06-05 10:22:00,66.8,66.3,30.19,North,359,1.1,1.1,98,0.00,,,0.00,107,TxWx,2013-06-05 14:22:00,
2013-06-05 11:47:00,70.9,67.6,30.16,North,9,2.4,2.4,89,0.00,,,0.00,189,TxWx,2013-06-05 15:47:00,
2013-06-05 11:52:00,71.4,67.9,30.16,NW,308,1.1,2.0,88,0.00,,,0.00,436,TxWx,2013-06-05 15:52:00,
2013-06-05 11:57:00,71.7,66.9,30.17,NW,323,2.4,2.4,84,0.00,,,0.00,143,TxWx,2013-06-05 15:57:00,
2013-06-05 12:02:00,71.4,66.1,30.16,WNW,297,1.1,2.0,83,0.00,,,0.00,190,TxWx,2013-06-05 16:02:00,
2013-06-05 12:07:00,71.5,66.1,30.16,SW,220,1.1,1.1,82,0.00,,,0.00,701,TxWx,2013-06-05 16:07:00,
2013-06-05 12:12:00,71.9,66.4,30.16,WNW,298,1.1,2.0,82,0.00,,,0.00,230,TxWx,2013-06-05 16:12:00,
2013-06-05 12:17:00,72.2,65.8,30.16,WNW,289,0.0,0.0,80,0.00,,,0.00,172,TxWx,2013-06-05 16:17:00,
2013-06-05 13:38:00,72.2,67.7,30.15,West,265,1.1,1.1,85,0.00,,,0.00,55,TxWx,2013-06-05 17:38:00,
2013-06-05 13:43:00,71.4,66.6,30.14,WSW,240,1.1,1.1,84,0.00,,,0.00,87,TxWx,2013-06-05 17:43:00,
2013-06-05 13:48:00,70.8,67.2,30.14,WSW,240,1.1,1.1,88,0.00,,,0.00,84,TxWx,2013-06-05 17:48:00,
2013-06-05 13:53:00,70.5,67.4,30.14,SW,223,1.1,1.1,89,0.00,,,0.00,105,TxWx,2013-06-05 17:53:00,
2013-06-05 13:58:00,70.1,66.8,30.14,SW,223,0.0,1.0,89,0.00,,,0.00,158,TxWx,2013-06-05 17:58:00,
2013-06-05 14:03:00,70.1,67.1,30.14,SW,222,1.1,1.1,90,0.00,,,0.00,110,TxWx,2013-06-05 18:03:00,
2013-06-05 14:08:00,70.1,66.9,30.14,SW,222,1.1,1.1,89,0.00,,,0.00,94,TxWx,2013-06-05 18:08:00,
2013-06-05 14:13:00,70.0,67.2,30.13,SW,222,0.0,1.0,90,0.00,,,0.00,108,TxWx,2013-06-05 18:13:00,
2013-06-05 14:18:00,70.3,67.5,30.13,ESE,104,0.0,1.0,90,0.00,,,0.00,229,TxWx,2013-06-05 18:18:00,
2013-06-05 14:23:00,70.3,68.1,30.13,SE,124,1.1,1.1,92,0.00,,,0.00,195,TxWx,2013-06-05 18:23:00,
2013-06-05 14:28:00,70.4,68.6,30.13,SE,124,1.1,1.1,94,0.00,,,0.00,229,TxWx,2013-06-05 18:28:00,
2013-06-05 14:33:00,70.8,69.3,30.13,SE,127,0.0,0.0,95,0.00,,,0.00,141,TxWx,2013-06-05 18:33:00,
2013-06-05 14:38:00,71.0,69.4,30.13,ESE,122,0.0,0.0,94,0.00,,,0.00,194,TxWx,2013-06-05 18:38:00,
2013-06-05 14:43:00,71.2,67.9,30.12,ENE,72,1.1,1.1,89,0.00,,,0.00,164,TxWx,2013-06-05 18:43:00,
2013-06-05 14:48:00,71.6,68.2,30.12,ENE,72,1.1,1.1,89,0.00,,,0.00,148,TxWx,2013-06-05 18:48:00,
2013-06-05 14:53:00,72.1,69.6,30.12,ESE,120,0.0,0.0,91,0.00,,,0.00,165,TxWx,2013-06-05 18:53:00,
2013-06-05 14:58:00,72.5,69.5,30.11,ESE,120,0.0,0.0,90,0.00,,,0.00,109,TxWx,2013-06-05 18:58:00,
2013-06-05 15:03:00,72.1,69.2,30.11,ESE,119,0.0,0.0,90,0.00,,,0.00,107,TxWx,2013-06-05 19:03:00,
2013-06-05 15:08:00,71.6,68.9,30.11,ESE,119,0.0,0.0,91,0.00,,,0.00,142,TxWx,2013-06-05 19:08:00,
2013-06-05 15:13:00,71.6,68.9,30.11,South,178,2.4,2.4,91,0.00,,,0.00,150,TxWx,2013-06-05 19:13:00,
2013-06-05 15:18:00,71.6,69.3,30.10,South,179,0.0,0.0,92,0.00,,,0.00,188,TxWx,2013-06-05 19:18:00,
2013-06-05 15:23:00,72.0,69.7,30.10,South,183,0.0,0.0,92,0.00,,,0.00,189,TxWx,2013-06-05 19:23:00,
2013-06-05 15:28:00,72.8,69.6,30.10,WNW,286,1.1,2.0,89,0.00,,,0.00,672,TxWx,2013-06-05 19:28:00,
2013-06-05 15:33:00,73.9,70.2,30.10,SE,142,1.1,1.1,88,0.00,,,0.00,134,TxWx,2013-06-05 19:33:00,
2013-06-05 15:38:00,73.9,69.0,30.10,SE,129,0.0,0.0,84,0.00,,,0.00,88,TxWx,2013-06-05 19:38:00,
2013-06-05 15:43:00,73.1,67.9,30.10,NE,50,1.1,1.1,83,0.00,,,0.00,88,TxWx,2013-06-05 19:43:00,
2013-06-05 15:48:00,72.6,68.3,30.10,NE,50,0.0,1.0,86,0.00,,,0.00,112,TxWx,2013-06-05 19:48:00,
2013-06-05 15:53:00,72.6,68.8,30.10,NE,45,0.0,0.0,88,0.00,,,0.00,184,TxWx,2013-06-05 19:53:00,
2013-06-05 15:58:00,72.7,68.3,30.10,ENE,75,0.0,1.0,86,0.00,,,0.00,181,TxWx,2013-06-05 19:58:00,
2013-06-05 16:03:00,73.2,69.3,30.09,WNW,301,1.1,1.1,87,0.00,,,0.00,590,TxWx,2013-06-05 20:03:00,
2013-06-05 16:08:00,72.9,69.3,30.09,SW,225,0.0,0.0,88,0.00,,,0.00,95,TxWx,2013-06-05 20:08:00,
2013-06-05 16:13:00,72.7,68.9,30.09,SW,225,0.0,0.0,87,0.00,,,0.00,90,TxWx,2013-06-05 20:13:00,
2013-06-05 16:18:00,72.3,68.2,30.09,NNE,21,0.0,0.0,87,0.00,,,0.00,87,TxWx,2013-06-05 20:18:00,
2013-06-05 16:23:00,71.5,68.0,30.10,NNE,21,0.0,0.0,88,0.00,,,0.00,70,TxWx,2013-06-05 20:23:00,
2013-06-05 16:28:00,70.8,67.2,30.10,SSW,206,0.0,0.0,88,0.00,,,0.00,77,TxWx,2013-06-05 20:28:00,
2013-06-05 16:33:00,70.3,68.0,30.10,SSW,198,2.4,2.4,92,0.00,,,0.00,120,TxWx,2013-06-05 20:33:00,
2013-06-05 16:38:00,70.3,67.3,30.10,WSW,252,0.0,1.0,90,0.00,,,0.00,170,TxWx,2013-06-05 20:38:00,
2013-06-05 16:43:00,70.8,68.2,30.09,NE,36,0.0,0.0,91,0.00,,,0.00,151,TxWx,2013-06-05 20:43:00,
2013-06-05 16:48:00,70.9,67.8,30.09,SSE,164,0.0,0.0,89,0.00,,,0.00,373,TxWx,2013-06-05 20:48:00,
2013-06-05 16:53:00,71.8,68.4,30.09,ENE,69,0.0,1.0,89,0.00,,,0.00,415,TxWx,2013-06-05 20:53:00,
2013-06-05 16:58:00,72.5,67.6,30.09,North,8,3.5,3.5,84,0.00,,,0.00,374,TxWx,2013-06-05 20:58:00,
2013-06-05 17:03:00,72.7,68.7,30.09,SW,234,0.0,0.0,87,0.00,,,0.00,355,TxWx,2013-06-05 21:03:00,
2013-06-05 17:08:00,73.3,68.1,30.09,SSW,201,2.4,2.4,83,0.00,,,0.00,324,TxWx,2013-06-05 21:08:00,
2013-06-05 17:13:00,73.9,67.5,30.09,WNW,286,0.0,0.0,80,0.00,,,0.00,307,TxWx,2013-06-05 21:13:00,
2013-06-05 17:18:00,74.0,65.6,30.09,West,261,1.1,1.1,75,0.00,,,0.00,259,TxWx,2013-06-05 21:18:00,
2013-06-05 17:23:00,74.4,67.0,30.09,NNW,337,0.0,0.0,77,0.00,,,0.00,240,TxWx,2013-06-05 21:23:00,
2013-06-05 17:28:00,73.6,65.4,30.08,WNW,291,1.1,1.1,75,0.00,,,0.00,204,TxWx,2013-06-05 21:28:00,
2013-06-05 17:33:00,73.2,65.3,30.08,WNW,297,2.4,2.4,76,0.00,,,0.00,176,TxWx,2013-06-05 21:33:00,
2013-06-05 17:38:00,72.7,65.7,30.08,NE,45,2.4,2.4,78,0.00,,,0.00,100,TxWx,2013-06-05 21:38:00,
2013-06-05 17:43:00,72.6,67.3,30.08,ENE,77,1.1,1.1,83,0.00,,,0.00,128,TxWx,2013-06-05 21:43:00,
2013-06-05 17:48:00,71.9,65.7,30.08,WNW,288,1.1,1.1,80,0.00,,,0.00,97,TxWx,2013-06-05 21:48:00,
2013-06-05 17:53:00,71.7,65.9,30.08,ESE,110,1.1,1.1,81,0.00,,,0.00,106,TxWx,2013-06-05 21:53:00,
2013-06-05 17:58:00,71.6,66.8,30.08,North,9,0.0,1.0,85,0.00,,,0.00,102,TxWx,2013-06-05 21:58:00,
2013-06-05 18:03:00,71.1,66.4,30.08,WSW,237,0.0,0.0,85,0.00,,,0.00,98,TxWx,2013-06-05 22:03:00,
2013-06-05 18:08:00,70.9,66.6,30.08,NNE,13,1.1,1.1,86,0.00,,,0.00,98,TxWx,2013-06-05 22:08:00,
2013-06-05 18:14:00,70.8,66.7,30.08,NNW,333,1.1,1.1,86,0.00,,,0.00,92,TxWx,2013-06-05 22:14:00,
2013-06-05 18:19:00,70.4,66.3,30.08,East,93,0.0,0.0,86,0.00,,,0.00,88,TxWx,2013-06-05 22:19:00,
2013-06-05 18:24:00,70.3,66.5,30.08,East,93,0.0,0.0,87,0.00,,,0.00,87,TxWx,2013-06-05 22:24:00,
2013-06-05 18:29:00,70.3,66.9,30.08,East,93,0.0,0.0,88,0.00,,,0.00,82,TxWx,2013-06-05 22:29:00,
2013-06-05 18:34:00,70.3,66.7,30.08,East,93,0.0,0.0,88,0.00,,,0.00,84,TxWx,2013-06-05 22:34:00,
2013-06-05 18:39:00,70.1,66.8,30.08,NNE,18,0.0,0.0,89,0.00,,,0.00,78,TxWx,2013-06-05 22:39:00,
2013-06-05 18:44:00,70.0,66.5,30.08,North,349,0.0,0.0,88,0.00,,,0.00,68,TxWx,2013-06-05 22:44:00,
2013-06-05 18:49:00,69.9,66.7,30.08,ENE,59,1.1,1.1,89,0.00,,,0.00,60,TxWx,2013-06-05 22:49:00,
2013-06-05 18:54:00,69.6,65.8,30.07,NE,46,1.1,1.1,87,0.00,,,0.00,61,TxWx,2013-06-05 22:54:00,
2013-06-05 18:59:00,69.4,66.2,30.07,NNE,22,0.0,0.0,89,0.00,,,0.00,56,TxWx,2013-06-05 22:59:00,
2013-06-05 19:04:00,69.3,66.0,30.07,NW,320,0.0,0.0,89,0.00,,,0.00,49,TxWx,2013-06-05 23:04:00,
2013-06-05 19:09:00,69.1,66.1,30.07,NNE,26,0.0,0.0,90,0.00,,,0.00,55,TxWx,2013-06-05 23:09:00,
2013-06-05 19:14:00,68.9,65.9,30.07,North,3,0.0,0.0,90,0.00,,,0.00,52,TxWx,2013-06-05 23:14:00,
2013-06-05 19:19:00,68.8,66.3,30.07,NE,43,0.0,0.0,91,0.00,,,0.00,49,TxWx,2013-06-05 23:19:00,
2013-06-05 19:24:00,68.6,66.1,30.07,NE,43,0.0,0.0,91,0.00,,,0.00,46,TxWx,2013-06-05 23:24:00,
2013-06-05 19:29:00,68.5,66.1,30.07,NE,43,0.0,0.0,92,0.00,,,0.00,43,TxWx,2013-06-05 23:29:00,
2013-06-05 19:34:00,68.1,66.1,30.07,SW,223,0.0,0.0,93,0.00,,,0.00,41,TxWx,2013-06-05 23:34:00,
2013-06-05 19:39:00,68.1,66.3,30.08,SW,223,0.0,0.0,94,0.00,,,0.00,38,TxWx,2013-06-05 23:39:00,
2013-06-05 19:44:00,67.9,66.0,30.08,SW,223,0.0,0.0,93,0.00,,,0.00,29,TxWx,2013-06-05 23:44:00,
2013-06-05 19:49:00,67.7,65.8,30.08,SW,223,0.0,0.0,93,0.00,,,0.00,14,TxWx,2013-06-05 23:49:00,
2013-06-05 19:54:00,67.6,65.6,30.09,SW,223,0.0,0.0,93,0.00,,,0.00,7,TxWx,2013-06-05 23:54:00,
2013-06-05 20:00:00,67.3,65.6,30.09,SW,223,0.0,0.0,94,0.00,,,0.00,6,TxWx,2013-06-06 00:00:00,
2013-06-05 20:05:00,67.3,65.5,30.09,WNW,295,0.0,0.0,93,0.00,,,0.00,7,TxWx,2013-06-06 00:05:00,
2013-06-05 20:10:00,67.1,65.2,30.10,SW,220,1.1,1.1,93,0.00,,,0.00,6,TxWx,2013-06-06 00:10:00,
2013-06-05 20:15:00,67.1,65.1,30.10,WNW,291,0.0,1.0,93,0.00,,,0.00,8,TxWx,2013-06-06 00:15:00,
2013-06-05 20:20:00,67.1,65.3,30.10,SE,138,0.0,1.0,93,0.00,,,0.00,7,TxWx,2013-06-06 00:20:00,
2013-06-05 20:25:00,67.0,64.5,30.10,West,268,1.1,1.1,91,0.00,,,0.00,6,TxWx,2013-06-06 00:25:00,
2013-06-05 20:30:00,67.2,65.2,30.10,NNE,12,0.0,0.0,93,0.00,,,0.00,4,TxWx,2013-06-06 00:30:00,
2013-06-05 20:35:00,66.9,65.2,30.09,NNE,31,1.1,1.1,94,0.00,,,0.00,2,TxWx,2013-06-06 00:35:00,
2013-06-05 20:40:00,66.7,63.7,30.09,NNW,333,2.4,2.4,90,0.00,,,0.00,1,TxWx,2013-06-06 00:40:00,
2013-06-05 20:45:00,66.7,64.2,30.09,South,191,1.1,2.0,91,0.00,,,0.00,0,TxWx,2013-06-06 00:45:00,
2013-06-05 20:50:00,66.6,64.3,30.09,ENE,60,0.0,0.0,92,0.00,,,0.00,0,TxWx,2013-06-06 00:50:00,
2013-06-05 20:55:00,66.5,64.2,30.09,NNE,13,0.0,0.0,92,0.00,,,0.00,0,TxWx,2013-06-06 00:55:00,
2013-06-05 21:00:00,66.3,64.2,30.10,ENE,59,0.0,0.0,93,0.00,,,0.00,0,TxWx,2013-06-06 01:00:00,
2013-06-05 21:07:00,65.9,64.2,30.10,NE,48,1.1,1.1,94,0.00,,,0.00,0,TxWx,2013-06-06 01:07:00,
2013-06-05 21:12:00,65.8,64.4,30.10,NNW,341,0.0,0.0,95,0.00,,,0.00,0,TxWx,2013-06-06 01:12:00,
2013-06-05 21:17:00,65.5,64.4,30.10,NNW,333,0.0,0.0,96,0.00,,,0.00,0,TxWx,2013-06-06 01:17:00,
2013-06-05 21:22:00,65.1,64.5,30.10,WNW,303,1.1,1.1,98,0.00,,,0.00,0,TxWx,2013-06-06 01:22:00,
2013-06-05 21:27:00,64.4,64.4,30.10,SW,218,1.1,1.1,100,0.00,,,0.02,0,TxWx,2013-06-06 01:27:00,
2013-06-05 21:32:00,63.8,63.8,30.10,West,270,0.0,1.0,100,0.00,,,0.03,0,TxWx,2013-06-06 01:32:00,
2013-06-05 21:37:00,63.5,63.5,30.10,NW,317,0.0,1.0,100,0.00,,,0.03,0,TxWx,2013-06-06 01:37:00,
2013-06-05 21:42:00,63.4,63.4,30.10,NNE,23,0.0,0.0,100,0.00,,,0.03,0,TxWx,2013-06-06 01:42:00,
2013-06-05 21:47:00,63.2,63.2,30.11,East,91,1.1,1.1,100,0.00,,,0.03,0,TxWx,2013-06-06 01:47:00,
2013-06-05 21:52:00,62.9,62.9,30.11,SW,227,0.0,0.0,100,0.00,,,0.03,0,TxWx,2013-06-06 01:52:00,
2013-06-05 21:57:00,62.7,62.7,30.12,SE,144,0.0,1.0,100,0.00,,,0.04,0,TxWx,2013-06-06 01:57:00,
2013-06-05 22:02:00,62.5,62.5,30.12,NE,53,1.1,1.1,100,0.00,,,0.04,0,TxWx,2013-06-06 02:02:00,
2013-06-05 22:07:00,62.4,62.4,30.12,West,272,0.0,1.0,100,0.00,,,0.08,0,TxWx,2013-06-06 02:07:00,
2013-06-05 22:12:00,62.4,62.4,30.13,NE,53,0.0,1.0,100,0.00,,,0.12,0,TxWx,2013-06-06 02:12:00,
2013-06-05 22:17:00,62.4,62.4,30.13,NE,53,0.0,0.0,100,0.01,,,0.18,0,TxWx,2013-06-06 02:17:00,
2013-06-05 22:22:00,62.3,62.3,30.13,East,80,0.0,0.0,100,0.01,,,0.21,0,TxWx,2013-06-06 02:22:00,
2013-06-05 22:27:00,61.9,61.9,30.14,North,8,5.0,6.0,100,0.01,,,0.24,0,TxWx,2013-06-06 02:27:00,
2013-06-05 22:32:00,61.9,61.9,30.14,NNE,30,1.1,1.1,100,0.01,,,0.28,0,TxWx,2013-06-06 02:32:00,
2013-06-05 22:37:00,61.6,61.6,30.14,NNE,33,1.1,1.1,100,0.01,,,0.30,0,TxWx,2013-06-06 02:37:00,
2013-06-05 22:42:00,61.3,61.3,30.14,NE,39,1.1,2.0,100,0.01,,,0.33,0,TxWx,2013-06-06 02:42:00,
2013-06-05 22:47:00,61.4,61.4,30.13,West,277,0.0,0.0,100,0.01,,,0.35,0,TxWx,2013-06-06 02:47:00,
2013-06-05 22:52:00,61.1,61.1,30.13,SW,223,0.0,1.0,100,0.01,,,0.36,0,TxWx,2013-06-06 02:52:00,
2013-06-05 22:57:00,61.0,61.0,30.12,NW,304,1.1,2.0,100,0.01,,,0.36,0,TxWx,2013-06-06 02:57:00,
2013-06-05 23:02:00,61.1,61.1,30.12,WNW,285,0.0,1.0,100,0.01,,,0.37,0,TxWx,2013-06-06 03:02:00,
2013-06-05 23:07:00,61.0,61.0,30.12,WNW,285,0.0,0.0,100,0.01,,,0.38,0,TxWx,2013-06-06 03:07:00,
2013-06-05 23:13:00,61.0,61.0,30.12,NW,305,0.0,0.0,100,0.01,,,0.38,0,TxWx,2013-06-06 03:13:00,
2013-06-05 23:18:00,61.0,61.0,30.12,NW,305,0.0,0.0,100,0.01,,,0.38,0,TxWx,2013-06-06 03:18:00,
2013-06-05 23:23:00,60.9,60.9,30.12,NNE,15,0.0,0.0,100,0.01,,,0.38,0,TxWx,2013-06-06 03:23:00,
2013-06-05 23:28:00,60.9,60.9,30.12,NNE,16,0.0,0.0,100,0.01,,,0.38,0,TxWx,2013-06-06 03:28:00,
2013-06-05 23:33:00,60.9,60.9,30.12,NNE,16,0.0,0.0,100,0.01,,,0.39,0,TxWx,2013-06-06 03:33:00,
2013-06-05 23:38:00,60.8,60.8,30.12,NNE,16,0.0,0.0,100,0.00,,,0.39,0,TxWx,2013-06-06 03:38:00,
2013-06-05 23:43:00,60.8,60.8,30.12,NNE,16,0.0,0.0,100,0.00,,,0.39,0,TxWx,2013-06-06 03:43:00,
2013-06-05 23:48:00,60.8,60.8,30.11,NNE,16,0.0,0.0,100,0.00,,,0.39,0,TxWx,2013-06-06 03:48:00,
2013-06-05 23:53:00,60.8,60.8,30.11,NNE,16,0.0,0.0,100,0.00,,,0.39,0,TxWx,2013-06-06 03:53:00,
2013-06-05 23:58:00,60.6,60.6,30.11,NNE,16,0.0,0.0,100,0.00,,,0.39,0,TxWx,2013-06-06 03:58:00,